Погода в Хайкоу

Китай     20°00′49″N   110°18′17″E
темп.,
°C
ветер,
м/с
пор.,
м/с
влажн.,
%
обл.,
%
осадки,
мм/ч
давл.,
гПа
погр.,
м
8 марта, пн
пн823:00+23всв6108686 0.3 1019528
02:00+22всв698893 0.4 1017507
05:00+22в6108899 0.3 1017512
08:00+22в6108699 0.5 1018543
11:00+24всв588098 0.3 1020592
14:00+26в687297 0.8 1017787
17:00+25в697487 2.1 1015752
20:00+23в698281 2.1 1016583
9 марта, вт
вт923:00+22в598544 0.0 1019449
02:00+22в498738 0.0 1017442
05:00+22в49888 0.0 1016391
08:00+23в6108231 0.1 1018476
11:00+26в686778 0.1 1019921
14:00+24всв797388 0.3 1017696
17:00+24всв7107454 0.1 1016696
20:00+22в7118333 0.1 1017558
10 марта, ср
ср1023:00+22в6118616 0.0 1019521
02:00+21в5108827 0.0 1018519
05:00+21в5108714 0.0 1017430
08:00+22в6117932 0.1 1018539
11:00+26в686214 0.1 10191098
14:00+25в686449 0.1 1017942
17:00+25всв796872 0.0 1015681
20:00+23в6107784 0.0 1017628
11 марта, чт
чт1123:00+23в6108495 0.2 1018516
02:00+22в6118485 0.5 1018519
05:00+22в510864 0.3 1017544
08:00+23в6118450 0.6 1019595
11:00+26в796842 0.2 1020932
14:00+26всв8106946 0.4 1017859
17:00+25всв8107352 0.2 1016834
20:00+23в6108143 0.2 1017577
12 марта, пт
пт1223:00+22вюв598520 0.0 1018484
02:00+22вюв488815 0.0 1018377
05:00+21вюв48910 0.0 1017363
08:00+22в47860 0.0 1019386
11:00+26в57620 0.1 10191051
14:00+25всв787232 0.2 1017540
17:00+25всв787369 0.1 1015748
20:00+23в688054 0.2 1016484